Weather History for Estherville, IA

Change the Weather History Date:

Saturday, April 14, 2012

  Actual Average Record
Temperature  
Mean Temperature 55 °F 46 °F  
Max Temperature 65 °F 58 °F 88 °F (2003)
Min Temperature 44 °F 35 °F 15 °F (1950)
Degree Days  
Heating Degree Days 10 19  
Month to date heating degree days 216 303  
Since 1 July heating degree days 5829 7218  
Cooling Degree Days 0 0  
Month to date cooling degree days 3 0  
Year to date cooling degree days 13 0  
Growing Degree Days 4 (Base 50)    
Moisture  
Dew Point 52 °F    
Average Humidity 89    
Maximum Humidity 100    
Minimum Humidity 78    
Precipitation  
Precipitation 0.45 in 0.10 in 1.13 in (1991)
Month to date precipitation 1.21 1.33  
Year to date precipitation 4.25  
Sea Level Pressure  
Sea Level Pressure 29.74 in    
Wind  
Wind Speed 11 mph (SSE)    
Max Wind Speed 51 mph    
Max Gust Speed 60 mph    
Visibility 6 miles    
Events Fog , Rain , Thunderstorm    
T = Trace of Precipitation, MM = Missing Value Source: NWS Daily Summary

Daily Weather History Graph

Daily Weather History Graph

Search for Another Location

Airport:

Trip Planner

Search our weather history database for the weather conditions in past years. The results will help you decide how hot, cold, wet, or windy it might be!

Date:

Astronomy

Apr. 14, 2012 Rise Set
Actual Time 6:37 AM CDT 8:01 PM CDT
Civil Twilight 6:07 AM CDT 8:31 PM CDT
Nautical Twilight 5:31 AM CDT 9:07 PM CDT
Astronomical Twilight 4:54 AM CDT 9:45 PM CDT
Moon 3:12 AM CDT (4/14) 1:45 PM CDT (4/14)
Length of Visible Light 14h 23m
Length of Day
13h 24m
Last Quarter, 37% of the Moon is Illuminated
Apr 14
Last Quarter
Apr 21
New
Apr 29
First Quarter
May 5
Full
May 12
Last Quarter

Hourly Weather History & Observations

Time (CDT) Temp. Windchill Dew Point Humidity Pressure Visibility Wind Dir Wind Speed Gust Speed Precip Events Conditions
12:52 AM 48.9 °F - 46.9 °F 93% 29.82 in 9.0 mi South 8.1 mph - N/A   Overcast
1:52 AM 50.0 °F - 46.9 °F 89% 29.83 in 9.0 mi South 9.2 mph - N/A   Partly Cloudy
2:52 AM 45.0 °F 40.6 °F 44.1 °F 97% 29.83 in 5.0 mi South 8.1 mph - N/A   Clear
3:11 AM 46.4 °F 41.5 °F 44.6 °F 93% 29.81 in 2.5 mi South 10.4 mph - N/A   Partly Cloudy
3:13 AM 46.4 °F 41.5 °F 44.6 °F 93% 29.81 in 1.0 mi South 10.4 mph - N/A   Mist
3:20 AM 46.4 °F 41.1 °F 46.4 °F 100% 29.81 in 0.2 mi South 11.5 mph - N/A Fog Fog
3:52 AM 48.0 °F - 48.0 °F 100% 29.82 in 0.2 mi South 8.1 mph - N/A Fog Fog
4:52 AM 48.0 °F - 48.0 °F 100% 29.81 in 0.2 mi South 9.2 mph - 0.01 in Fog Fog
5:52 AM 45.0 °F 41.2 °F 44.1 °F 97% 29.80 in 0.2 mi South 6.9 mph - N/A Fog Fog
6:52 AM 45.0 °F 41.8 °F 45.0 °F 100% 29.80 in 0.2 mi South 5.8 mph - N/A Fog Fog
7:38 AM 46.4 °F 44.3 °F 46.4 °F 100% 29.80 in 1.2 mi South 4.6 mph - N/A   Partly Cloudy
7:48 AM 46.4 °F 43.5 °F 46.4 °F 100% 29.81 in 2.5 mi South 5.8 mph - N/A   Clear
7:52 AM 48.0 °F - 46.9 °F 96% 29.81 in 3.0 mi South 8.1 mph - N/A   Clear
8:21 AM 48.2 °F - 48.2 °F 100% 29.81 in 2.5 mi South 9.2 mph 18.4 mph N/A   Partly Cloudy
8:30 AM 48.2 °F - 48.2 °F 100% 29.81 in 1.0 mi South 6.9 mph - N/A   Mist
8:52 AM 48.9 °F - 48.9 °F 100% 29.82 in 1.2 mi South 8.1 mph - N/A   Mostly Cloudy
9:25 AM 51.8 °F - 51.8 °F 100% 29.82 in 2.5 mi SSW 5.8 mph 24.2 mph N/A   Mostly Cloudy
9:32 AM 51.8 °F - 51.8 °F 100% 29.81 in 4.0 mi SSW 5.8 mph 25.3 mph N/A   Mostly Cloudy
9:41 AM 53.6 °F - 51.8 °F 94% 29.81 in 6.0 mi South 6.9 mph - N/A   Partly Cloudy
9:52 AM 55.0 °F - 53.1 °F 93% 29.83 in 7.0 mi South 9.2 mph - N/A   Partly Cloudy
10:52 AM 57.9 °F - 54.0 °F 87% 29.83 in 9.0 mi South 10.4 mph 17.3 mph N/A   Clear
11:31 AM 59.0 °F - 55.4 °F 88% 29.82 in 9.0 mi South 11.5 mph 21.9 mph N/A   Partly Cloudy
11:45 AM 60.8 °F - 55.4 °F 82% 29.82 in 9.0 mi SSE 11.5 mph - N/A   Mostly Cloudy
11:52 AM 60.1 °F - 55.0 °F 83% 29.81 in 9.0 mi South 10.4 mph 16.1 mph N/A   Mostly Cloudy
12:35 PM 60.8 °F - 55.4 °F 82% 29.79 in 9.0 mi SSE 13.8 mph - N/A   Scattered Clouds
12:52 PM 63.0 °F - 55.9 °F 78% 29.78 in 9.0 mi SE 12.7 mph - N/A   Clear
1:52 PM 62.1 °F - 55.9 °F 80% 29.79 in 9.0 mi SSE 15.0 mph 24.2 mph N/A   Partly Cloudy
2:52 PM 62.1 °F - 57.0 °F 84% 29.75 in 8.0 mi SE 8.1 mph - N/A   Clear
3:52 PM 62.1 °F - 57.0 °F 84% 29.73 in 6.0 mi ESE 5.8 mph - N/A   Haze
4:52 PM 62.1 °F - 57.0 °F 84% 29.68 in 6.0 mi ESE 8.1 mph 24.2 mph N/A   Haze
5:52 PM 61.0 °F - 55.9 °F 83% 29.70 in 7.0 mi SE 6.9 mph - 0.00 in Rain Light Rain
6:52 PM 59.0 °F - 57.0 °F 93% 29.70 in 4.0 mi SSE 15.0 mph - 0.11 in Rain Rain
7:52 PM 57.9 °F - 55.9 °F 93% 29.67 in 4.0 mi ESE 16.1 mph - 0.18 in Rain Light Rain
8:52 PM 57.9 °F - 55.0 °F 90% 29.57 in 8.0 mi ENE 16.1 mph 25.3 mph 0.11 in   Scattered Clouds
9:03 PM 57.2 °F - 55.4 °F 94% 29.55 in 9.0 mi East 16.1 mph - N/A   Mostly Cloudy
9:27 PM 57.2 °F - 55.4 °F 94% 29.56 in 9.0 mi ESE 15.0 mph - N/A   Scattered Clouds
9:52 PM 57.9 °F - 54.0 °F 87% 29.56 in 10.0 mi East 16.1 mph 21.9 mph N/A   Mostly Cloudy
10:15 PM 57.2 °F - 55.4 °F 94% 29.53 in 9.0 mi East 17.3 mph - N/A   Scattered Clouds
10:52 PM 57.0 °F - 54.0 °F 89% 29.51 in 10.0 mi East 17.3 mph - N/A   Mostly Cloudy
11:14 PM 57.2 °F - 53.6 °F 88% 29.52 in 10.0 mi ESE 11.5 mph - N/A Thunderstorm Overcast
11:33 PM 57.2 °F - 53.6 °F 88% 29.51 in 10.0 mi ESE 10.4 mph - 0.02 in Rain , Thunderstorm Light Thunderstorms and Rain
11:52 PM 57.0 °F - 55.0 °F 93% 29.49 in 9.0 mi East 9.2 mph - 0.02 in   Overcast